Regional Weather Roundup
Issued by NWS

Home | Current Version | Previous Version | Text Only | Print | Product List | Glossary Off
Versions: 1 2 3 4 5 6 7 8 9 10 11 12 13 14 15 16 17 18 19 20 21 22 23 24 25 26 27

000
ASUS45 KTFX 240610
RWRMT
MONTANA REGIONAL WEATHER ROUNDUP
NATIONAL WEATHER SERVICE GREAT FALLS MT
1200 AM MDT SUN SEP 24 2017

NOTE: "FAIR" INDICATES FEW OR NO CLOUDS BELOW 12000 FEET WITH NO
SIGNIFICANT WEATHER AND/OR OBSTRUCTIONS TO VISIBILITY.

MTZ001>007-043-240700-
WEST OF THE DIVIDE

CITY           SKY/WX    TMP DP  RH WIND       PRES   REMARKS
KALISPELL      MOCLDY    41  39  93 N3        30.12S
MISSOULA       CLEAR     39  34  82 N7        30.13R
BUTTE          MOCLDY    32  30  92 S6        30.12S WCI  26
MULLAN PASS    CLOUDY    34  32  92 NW5       30.12S
ANACONDA         N/A     37  30  75 CALM      30.11S
DEER LODGE       N/A     39  30  70 CALM      30.14R
EUREKA           N/A     46  43  87 CALM      30.10R
HAMILTON         N/A     39  34  81 CALM      30.12R
LIBBY            N/A     45  39  81 CALM      30.09R
PLAINS           N/A     39  33  79 CALM      30.12S
$$

MTZ008-052>055-240700-
SOUTHWEST MONTANA

CITY           SKY/WX    TMP DP  RH WIND       PRES   REMARKS
BOZEMAN        CLOUDY    42  36  79 S6        30.10S
DILLON         CLOUDY    40  27  59 NE8       30.09R
W YELLOWSTONE  CLOUDY    36  27  69 MISG      30.06S
ENNIS          CLOUDY    39  32  75 N13       30.12S WCI  32
THREE FORKS      N/A     43  35  73 CALM      30.08S
$$

MTZ009-010-012-014-046-048-049-054-240700-
EAST SLOPES AND CENTRAL MONTANA

CITY           SKY/WX    TMP DP  RH WIND       PRES   REMARKS
CUT BANK       CLEAR     35  31  85 NW8       30.08R WCI  29
GREAT FALLS    MOCLDY    37  31  78 S8        30.09R WCI  31
MALMSTROM AFB  MOCLDY    38  33  82 S6        30.09S
HELENA         CLEAR     40  33  76 W6        30.10R
BOWMANS CRNR     N/A     35  30  80 W7        30.08R WCI  30
CHOTEAU          N/A     36  32  87 SW5       30.10R
FAIRFIELD        N/A     36  31  82 NW5       30.08R
POWER            N/A     35  30  82 SE3       30.08R
RAYNESFORD       N/A     34  29  82 CALM      30.11R
ULM              N/A     34  31  88 SE3       30.10R
$$

MTZ011-013-016-021-045-047-050-051-240700-
NORTH CENTRAL MONTANA

CITY           SKY/WX    TMP DP  RH WIND       PRES   REMARKS
HAVRE          MOCLDY    40  36  86 SW5       30.10S
LEWISTOWN      CLOUDY    41  39  93 E3        30.11R
N BAR RANCH    CLOUDY    36  34  93 CALM      30.14R
CHINOOK          N/A     43  41  93 E3        30.11S
DENTON           N/A     40  37  89 S5        30.07S
GEYSER           N/A     34  30  85 SW7       30.10R WCI  28
JUDITH GAP     MOCLDY    38  37  95 S14       30.11R WCI  30
WINIFRED       MOCLDY    37  36  96 E3        30.09S
$$

MTZ017>020-022>027-061-062-240700-
NORTHEAST MONTANA

CITY           SKY/WX    TMP DP  RH WIND       PRES   REMARKS
GLASGOW        CLOUDY    47  40  76 E3        30.13R
JORDAN           N/A     44  40  85 NE3       30.11F
SIDNEY         LGT RAIN  45  44  97 N3        30.15S
WOLF POINT     CLOUDY    46  43  89 SW3       30.15R
MALTA          CLEAR     39  37  93 N5        30.13S
PLENTYWOOD       N/A     46  41  81 CALM      30.14R
POPLAR           N/A     46  43  87 CALM      30.15S
SCOBEY           N/A     45  35  67 CALM      30.11F
$$

MTZ028>42-056>058-240700-
SOUTHCENTRAL AND SOUTHEAST MONTANA

CITY           SKY/WX    TMP DP  RH WIND       PRES   REMARKS
BAKER          LGT RAIN  43  40  89 N7        30.09F
BILLINGS       CLOUDY    42  40  92 N6        30.12R
LIVINGSTON     CLOUDY    43  35  73 CALM      30.10R
MILES CITY     LGT RAIN  43  41  93 N8        30.10F
BIG TIMBER     CLOUDY    41  36  81 CALM      30.13S
EKALAKA          N/A     41  38  89 N7        30.03F
HARLOWTON      CLOUDY    41  38  91 MISG      30.11R
LAUREL           N/A     41  39  93 N6        30.12S
$$

REGIONAL REPORTS...DAKOTAS

CITY           SKY/WX    TMP DP  RH WIND       PRES   REMARKS
WILLISTON      LGT RAIN  46  44  93 CALM      30.16R
MINOT          LGT RAIN  47  46  97 NW10      30.09S
DICKINSON      CLOUDY    45  44  97 N10       30.06F
BEACH          DRIZZLE   43  43 100 N9        30.12F
CROSBY         CLOUDY    45  45 100 CALM      30.15R
TIOGA          LGT RAIN  43  43 100 CALM      30.15R
BISMARCK       LGT RAIN  49  48  97 N10       30.04F FOG
GRAND FORKS    LGT RAIN  54  54 100 N8        30.00F
FARGO          RAIN      56  55  97 NE12      29.93F FOG
BUFFALO SD       N/A     45  43  93 NE12      29.98F
$$

REGIONAL REPORTS...WYOMING/IDAHO/WASHINGTON

CITY           SKY/WX    TMP DP  RH WIND       PRES   REMARKS
GILLETTE       LGT RAIN  40  40 100 N15       30.02F
SHERIDAN       CLOUDY    41  40  96 NW6       30.08F
BUFFALO WY     LGT RAIN  38  35  89 N10       30.07F WCI  31
CODY           CLOUDY    39  33  79 CALM      30.10S
IDAHO FALLS    CLEAR     38  32  79 N8        30.00S
SALMON         CLOUDY    43  31  62 S5        30.10R
BOISE          CLEAR     47  34  60 NW6       30.01R
SPOKANE        CLOUDY    55  41  59 S6        30.10S
$$

REGIONAL REPORTS...ALBERTA

CITY           SKY/WX    TMP DP  RH WIND       PRES   REMARKS
EDMONTON       MOCLDY    45  39  81 S6        30.03S
CALGARY        MOCLDY    37  32  81 S7        30.07R
LETHBRIDGE     CLEAR     30  27  86 SW7       30.08S WCI  23
MEDICINE HAT   CLOUDY    45  37  76 NE5       30.09S
$$

REGIONAL REPORTS...SASKATCHEWAN

CITY           SKY/WX    TMP DP  RH WIND       PRES   REMARKS
SWIFT CURRENT    N/A     41  36  81 S6        30.12S
REGINA         MOCLDY    39  36  87 NE2       30.16S
SASKATOON      CLOUDY    45  41  87 CALM      30.16S
$$




USA.gov is the U.S. government's official web portal to all federal, state and local government web resources and services.